TimeEDT,TemperatureF,Dew PointF,Humidity,Sea Level PressureIn,VisibilityMPH,Wind Direction,Wind SpeedMPH,Gust SpeedMPH,PrecipitationIn,Events,Conditions,WindDirDegrees,DateUTC
12:53 AM,37.0,35.1,93,29.95,10.0,Calm,Calm,-,N/A,,Clear,0,2012-10-17 04:53:00
1:53 AM,37.0,35.1,93,29.96,10.0,Calm,Calm,-,N/A,,Clear,0,2012-10-17 05:53:00
2:53 AM,37.0,35.1,93,29.96,8.0,Calm,Calm,-,N/A,,Clear,0,2012-10-17 06:53:00
3:53 AM,37.0,35.1,93,29.96,8.0,WNW,3.5,-,N/A,,Clear,290,2012-10-17 07:53:00
4:53 AM,36.0,33.1,89,29.97,7.0,Calm,Calm,-,N/A,,Clear,0,2012-10-17 08:53:00
5:53 AM,36.0,33.1,89,29.99,7.0,Calm,Calm,-,N/A,,Clear,0,2012-10-17 09:53:00
6:53 AM,35.1,33.1,92,29.99,4.0,Calm,Calm,-,N/A,,Clear,0,2012-10-17 10:53:00
7:53 AM,35.1,33.1,92,30.01,5.0,Calm,Calm,-,N/A,,Clear,0,2012-10-17 11:53:00
8:53 AM,41.0,37.9,89,30.02,8.0,Calm,Calm,-,N/A,,Clear,0,2012-10-17 12:53:00
9:53 AM,50.0,42.1,74,30.03,10.0,Calm,Calm,-,N/A,,Clear,0,2012-10-17 13:53:00
10:53 AM,55.0,42.1,62,30.03,10.0,East,4.6,-,N/A,,Clear,100,2012-10-17 14:53:00
11:53 AM,59.0,43.0,55,30.01,10.0,Calm,Calm,-,N/A,,Clear,0,2012-10-17 15:53:00
12:53 PM,61.0,39.9,46,29.99,10.0,SSW,8.1,-,N/A,,Clear,210,2012-10-17 16:53:00
1:53 PM,61.0,41.0,48,29.96,10.0,SSW,5.8,-,N/A,,Clear,200,2012-10-17 17:53:00
2:53 PM,61.0,41.0,48,29.95,10.0,WSW,4.6,-,N/A,,Clear,240,2012-10-17 18:53:00
3:53 PM,64.0,41.0,43,29.94,10.0,Variable,5.8,-,N/A,,Clear,0,2012-10-17 19:53:00
4:53 PM,64.0,42.1,45,29.93,10.0,SSE,3.5,-,N/A,,Clear,160,2012-10-17 20:53:00
5:53 PM,62.1,44.1,52,29.93,10.0,SE,4.6,-,N/A,,Clear,140,2012-10-17 21:53:00
6:53 PM,59.0,44.1,58,29.94,10.0,Calm,Calm,-,N/A,,Clear,0,2012-10-17 22:53:00
7:53 PM,55.9,45.0,67,29.96,10.0,Variable,4.6,-,N/A,,Clear,0,2012-10-17 23:53:00
8:53 PM,52.0,45.0,77,29.96,10.0,SSE,4.6,-,N/A,,Clear,150,2012-10-18 00:53:00
9:53 PM,53.1,45.0,74,29.96,10.0,SSE,3.5,-,N/A,,Clear,160,2012-10-18 01:53:00
10:53 PM,50.0,45.0,83,29.95,10.0,SSE,4.6,-,N/A,,Clear,150,2012-10-18 02:53:00
11:53 PM,48.9,45.0,86,29.94,8.0,SE,5.8,-,N/A,,Clear,130,2012-10-18 03:53:00